Lake Charles Regional, LA

9:04 PM CDT on May 29, 2017 (GMT -0500)
Lake Charles Regional

Weather History for KLCH - October, 2014

Change the Weather History Date:

Monday, October 20, 2014

  Actual Average Record
Temperature  
Mean Temperature 69 °F 69 °F  
Max Temperature 81 °F 80 °F 91 °F (1927)
Min Temperature 56 °F 58 °F 32 °F (1989)
Degree Days  
Heating Degree Days 0 1  
Month to date heating degree days 1 11  
Since 1 July heating degree days 1 12  
Cooling Degree Days 4 5  
Month to date cooling degree days 176 146  
Year to date cooling degree days 2635 2686  
Growing Degree Days 18 (Base 50)    
Moisture  
Dew Point 56 °F    
Average Humidity 68    
Maximum Humidity 93    
Minimum Humidity 42    
Precipitation  
Precipitation 0.00 in 0.18 in 2.16 in (1949)
Month to date precipitation 2.50 2.99  
Year to date precipitation 59.54 46.47  
Snow  
Snow 0.00 in 0.00 in 0.00 in ()
Month to date snowfall 0.0 0.0  
Since 1 July snowfall 0.0 0.0  
Since 1 September snowfall 0.0 0.0  
Snow Depth 0.00 in    
Sea Level Pressure  
Sea Level Pressure 30.05 in    
Wind  
Wind Speed 6 mph (ENE)    
Max Wind Speed 10 mph    
Max Gust Speed 13 mph    
Visibility 10 miles    
Events      
T = Trace of Precipitation, MM = Missing Value Source: NWS Daily Summary

Daily Weather History Graph

Daily Weather History Graph

Search for Another Location

Airport or City:

Trip Planner

Search our weather history database for the weather conditions in past years. The results will help you decide how hot, cold, wet, or windy it might be!

Date:

Astronomy

Oct. 20, 2014 Rise Set
Actual Time 7:18 AM CDT 6:36 PM CDT
Civil Twilight 6:53 AM CDT 7:00 PM CDT
Nautical Twilight 6:25 AM CDT 7:28 PM CDT
Astronomical Twilight 5:58 AM CDT 7:56 PM CDT
Moon 4:20 AM CDT (10/20) 4:48 PM CDT (10/20)
Length of Visible Light 12h 06m
Length of Day
11h 18m
Waning Crescent, 10% of the Moon is Illuminated
Oct 20
Waning Crescent
Oct 23
New
Oct 30
First Quarter
Nov 6
Full
Nov 14
Last Quarter

Hourly Weather History & Observations

Time (CDT) Temp. Heat Index Dew Point Humidity Pressure Visibility Wind Dir Wind Speed Gust Speed Precip Events Conditions
12:53 AM 60.1 °F - 54.0 °F 80% 30.08 in 10.0 mi ENE 4.6 mph - N/A   Clear
1:53 AM 60.1 °F - 54.0 °F 80% 30.07 in 10.0 mi ENE 4.6 mph - N/A   Clear
2:53 AM 59.0 °F - 54.0 °F 83% 30.07 in 10.0 mi ENE 5.8 mph - N/A   Clear
3:53 AM 59.0 °F - 54.0 °F 83% 30.05 in 10.0 mi East 4.6 mph - N/A   Clear
4:53 AM 57.9 °F - 53.1 °F 84% 30.04 in 10.0 mi ENE 3.5 mph - N/A   Clear
5:53 AM 57.0 °F - 53.1 °F 87% 30.04 in 10.0 mi NE 5.8 mph - N/A   Clear
6:53 AM 55.9 °F - 53.1 °F 90% 30.06 in 10.0 mi NE 5.8 mph - N/A   Clear
7:53 AM 57.9 °F - 54.0 °F 87% 30.07 in 10.0 mi ENE 4.6 mph - N/A   Clear
8:53 AM 62.1 °F - 55.9 °F 80% 30.09 in 10.0 mi NE 8.1 mph - N/A   Clear
9:53 AM 68.0 °F - 57.9 °F 70% 30.10 in 10.0 mi ENE 6.9 mph - N/A   Clear
10:53 AM 72.0 °F - 57.9 °F 61% 30.10 in 10.0 mi ENE 6.9 mph - N/A   Clear
11:53 AM 75.2 °F - 57.2 °F 53% 30.06 in 10.0 mi East 8.1 mph - N/A   Clear
12:53 PM 78.1 °F - 57.0 °F 48% 30.07 in 10.0 mi Variable 5.8 mph - N/A   Clear
1:53 PM 79.0 °F - 57.0 °F 47% 30.05 in 10.0 mi Variable 3.5 mph - N/A   Clear
2:53 PM 80.1 °F 80.2 °F 55.9 °F 43% 30.03 in 10.0 mi NE 5.8 mph - N/A   Clear
3:53 PM 80.1 °F 80.1 °F 55.0 °F 42% 30.02 in 10.0 mi ESE 4.6 mph - N/A   Clear
4:53 PM 80.1 °F 80.1 °F 55.0 °F 42% 30.01 in 10.0 mi Variable 4.6 mph - N/A   Clear
5:53 PM 77.0 °F - 57.9 °F 52% 30.01 in 9.0 mi NNE 5.8 mph - N/A   Clear
6:53 PM 71.1 °F - 57.9 °F 63% 30.03 in 7.0 mi NNE 9.2 mph - N/A   Clear
7:53 PM 66.9 °F - 55.9 °F 68% 30.04 in 10.0 mi NE 4.6 mph - N/A   Clear
8:53 PM 64.9 °F - 55.9 °F 73% 30.04 in 10.0 mi NE 5.8 mph - N/A   Clear
9:53 PM 64.0 °F - 55.9 °F 75% 30.05 in 10.0 mi NE 3.5 mph - N/A   Clear
10:53 PM 62.1 °F - 55.9 °F 80% 30.05 in 10.0 mi NE 5.8 mph - N/A   Clear
11:53 PM 61.0 °F - 55.0 °F 81% 30.04 in 10.0 mi NE 5.8 mph - N/A   Clear